MAYA-1 (43590 NORAD) Tracking and Keplerian Element Data

This shows tracking and keplerian element data for the satellite.

Feedback or suggestion? Click here.




ElementValue
Catalog43590
NameMAYA-1
Epoch Orbit1510
Epoch Day319.48500181
Epoch Year2018
RAAN343.5303
Inclination51.6398
Eccentricity0.0006861
Argument of Perigee65.8817
Mean Anonmoly294.2892
Mean Motion15.56585054
Decay Rate8.135E-05
L11 43590U 98067PE 18319.48500181 .00008135 00000-0 11891-3 0 9990
L22 43590 51.6398 343.5303 0006861 65.8817 294.2892 15.56585054 15109

Live tracking and technical data element details for MAYA-1 (NORAD 43590). MAYA-1 can be tracked NOW for your location showing map with azimuth and elevation plus other details from your city location.

Track the satellite on the map from your city or location and see movement details for azimuth, elevation, latitude, longitude, range, height, and movement on the map or in text.







IsCatalogInMostPopularTable: catalog: 43590, numindb: 37
Update: records affected: 1



GetName: 43590 MAYA-1

Hit Count: updated at: Sat, 17 Nov 2018 02:05:13 GMT